This demonstration page uses our WeatherBlox Daily Observations layout. Learn more.

38.89511, -77.03637

Hourly Observations for November 20, 2017

Temp ( °F °C ) Dew Point ( °F °C ) Humidity (%) Winds ( mph kmh ) Pressure ( in mb ) Visibility ( mi km ) Precip ( " mm )
12:52 am 00:52 Cloudy 41 5 28 -2.2 60 60 NW 13 20 30.01 1016 10 16.0934 0 0
1:52 am 01:52 Mostly Cloudy 41 5 22 -5.6 47 47 WNW 15 24 30.04 1017 10 16.0934 0 0
2:52 am 02:52 Partly Cloudy 39 3.9 22 -5.6 50 50 W 13 20 30.06 1018 10 16.0934 0 0
3:52 am 03:52 Partly Cloudy 38 3.3 20 -6.7 48 48 NW 21 33 30.06 1018 10 16.0934 0 0
4:52 am 04:52 Mostly Clear 38 3.3 21 -6.1 51 51 NW 16 26 30.1 1019 10 16.0934 0 0
5:52 am 05:52 Clear 36 2.2 20 -6.7 52 52 WNW 9 15 30.14 1021 10 16.0934 0 0
6:52 am 06:52 Mostly Clear 36 2.2 20 -6.7 52 52 NW 21 33 30.14 1021 10 16.0934 0 0
7:52 am 07:52 Mostly Sunny 36 2.2 21 -6.1 55 55 WNW 12 19 30.19 1022 10 16.0934 0 0
8:52 am 08:52 Sunny 39 3.9 21 -6.1 48 48 NW 12 19 30.2 1023 10 16.0934 0 0
9:52 am 09:52 Sunny 41 5 22 -5.6 47 47 NW 8 13 30.21 1023 10 16.0934 0 0
10:52 am 10:52 Sunny 44 6.7 22 -5.6 41 41 W 6 9 30.21 1023 10 16.0934 0 0
11:52 am 11:52 Mostly Sunny 46 7.8 22 -5.6 38 38 W 10 17 30.19 1023 10 16.0934 0 0
12:52 pm 12:52 Mostly Sunny 48 8.9 22 -5.6 36 36 WSW 10 17 30.18 1022 10 16.0934 0 0
1:52 pm 13:52 Mostly Sunny 50 10 22 -5.6 33 33 WSW 8 13 30.17 1022 10 16.0934 0 0
2:52 pm 14:52 Mostly Sunny 51 10.6 22 -5.6 32 32 SSW 14 22 30.16 1022 10 16.0934 0 0
3:52 pm 15:52 Mostly Sunny 50 10 23 -5 35 35 SSW 9 15 30.16 1022 10 16.0934 0 0
4:52 pm 16:52 Mostly Sunny 46 7.8 23 -5 40 40 SSW 5 7 30.17 1022 10 16.0934 0 0
5:52 pm 17:52 Mostly Clear 44 6.7 23 -5 43 43 S 6 9 30.17 1022 10 16.0934 0 0
6:52 pm 18:52 Mostly Clear 42 5.6 24 -4.4 49 49 S 5 7 30.17 1022 10 16.0934 0 0
7:52 pm 19:52 Clear 41 5 23 -5 49 49 S 6 9 30.17 1022 10 16.0934 0 0
8:52 pm 20:52 Clear 40 4.4 23 -5 51 51 S 6 9 30.18 1022 10 16.0934 0 0
9:52 pm 21:52 Clear 37 2.8 25 -3.9 62 62 SSW 6 9 30.17 1022 10 16.0934 0 0
10:52 pm 22:52 Partly Cloudy 36 2.2 26 -3.3 67 67 S 8 13 30.17 1022 10 16.0934 0 0
11:52 pm 23:52 Mostly Cloudy 36 2.2 26 -3.3 67 67 S 7 11 30.17 1022 10 16.0934 0 0

Powered by AerisWeather